Content
SEND FEEDBACK

Daily
Averages
Monthly
Summary
United Kingdom

BIRMINGHAM, ENGLAND


Home > Europe > United Kingdom > England
Elevation: 325 feet     Latitude: 52 27N     Longitude: 001 44W

WEATHER
 
SELECT A DAY
Number of Records: 283,891;   Date Range: 7/1/96 - 9/29/14
 
SHARE

PRINT THIS DATA

[ ← Previous Day ]
WEATHER ALMANAC - NOVEMBER 16, 2013
[ Next Day → ]
[ °C ]   °F
Weather ElementAverageHighLow
Temperature46.4 °F50 °F (11:20 am)41 °F (11:50 pm)
Dewpoint43.1 °F46.4 °F (10:20 am)39.2 °F (10:20 pm)
Humidity88.3 %93 % (2:50 am)76 % (3:50 pm)
Barometer30.43 in30.48 in (12:50 am)30.36 in (11:20 pm)
Wind Speed6 mph10.4 mph (1:50 pm)
Weather ElementAverage
Visibility6.2 mi
Wind DirectionWSW (231.7 °)

Weather ElementTotal
Precipitation---
Heating Degree Days19.5 (Base 65)
Averaged from 47 records on November 16, 2013
WEATHER CONDITIONS BREAKOUT
WIND DIRECTION BREAKOUT
WEATHER BY HOUR - NOVEMBER 16, 2013
[ °C ]   °F
Local TimeTemperatureDewpointHumidityBarometerVisibilityWind DirectionWind SpeedGust SpeedPrecipitationEventsConditions
12:50 AM46.4 °F42.8 °F87 %30.48 in6.2 miWSW (240°)6.9 mphOvercast
1:20 AM46.4 °F42.8 °F87 %30.48 in6.2 miWSW (240°)6.9 mphOvercast
1:50 AM46.4 °F42.8 °F87 %30.48 in6.2 miWSW (240°)6.9 mphOvercast
2:20 AM46.4 °F42.8 °F87 %30.48 in6.2 miWSW (240°)8.1 mphOvercast
2:50 AM44.6 °F42.8 °F93 %30.48 in6.2 miSW (230°)8.1 mphOvercast
3:20 AM44.6 °F42.8 °F93 %30.48 in6.2 miSW (230°)8.1 mphOvercast
3:50 AM44.6 °F42.8 °F93 %30.48 in6.2 miSW (220°)9.2 mphOvercast
4:20 AM44.6 °F42.8 °F93 %30.45 in6.2 miSW (230°)8.1 mphMostly Cloudy
4:50 AM44.6 °F42.8 °F93 %30.45 in6.2 miWSW (240°)6.9 mphMostly Cloudy
5:20 AM44.6 °F42.8 °F93 %30.45 in6.2 miWSW (250°)5.8 mphMostly Cloudy
5:50 AM44.6 °F42.8 °F93 %30.45 in6.2 miSW (230°)4.6 mphMostly Cloudy
6:20 AM44.6 °F42.8 °F93 %30.45 in6.2 miSW (220°)6.9 mphMostly Cloudy
6:50 AM44.6 °F42.8 °F93 %30.45 in6.2 miWSW (240°)5.8 mphMostly Cloudy
7:20 AM44.6 °F42.8 °F93 %30.45 in6.2 miWSW (240°)4.6 mphOvercast
7:50 AM44.6 °F42.8 °F93 %30.48 in6.2 miSSW (210°)5.8 mphOvercast
8:20 AM44.6 °F42.8 °F93 %30.48 in6.2 miSW (230°)4.6 mphOvercast
8:50 AM46.4 °F44.6 °F93 %30.48 in6.2 miWSW (240°)5.8 mphOvercast
9:20 AM46.4 °F44.6 °F93 %30.45 in6.2 miVariable3.5 mphOvercast
9:50 AM46.4 °F44.6 °F93 %30.45 in6.2 miVariable3.5 mphOvercast
10:20 AM48.2 °F46.4 °F93 %30.45 in6.2 miVariable2.3 mphMostly Cloudy
10:50 AM48.2 °F46.4 °F93 %30.45 in6.2 miWest (280°)8.1 mphMostly Cloudy
11:20 AM50.0 °F46.4 °F87 %30.45 in6.2 miWNW (290°)6.9 mphMostly Cloudy
11:50 AM50.0 °F46.4 °F87 %30.45 in6.2 miWNW (290°)6.9 mphOvercast
12:20 PM50.0 °F46.4 °F87 %30.42 in6.2 miWNW (300°)8.1 mphOvercast
12:50 PM50.0 °F44.6 °F82 %30.42 in6.2 miWNW (300°)8.1 mphMostly Cloudy
1:20 PM50.0 °F44.6 °F82 %30.42 in6.2 miWNW (290°)6.9 mphMostly Cloudy
1:50 PM50.0 °F44.6 °F82 %30.42 in6.2 miWNW (300°)10.4 mphMostly Cloudy
2:20 PM50.0 °F44.6 °F82 %30.42 in6.2 miNW (310°)10.4 mphMostly Cloudy
2:50 PM50.0 °F44.6 °F82 %30.42 in6.2 miWNW (300°)9.2 mphMostly Cloudy
3:20 PM50.0 °F44.6 °F82 %30.42 in6.2 miWNW (300°)6.9 mphMostly Cloudy
3:50 PM50.0 °F42.8 °F76 %30.39 in6.2 miWNW (290°)8.1 mphMostly Cloudy
4:20 PM48.2 °F42.8 °F82 %30.39 in6.2 miWNW (290°)8.1 mphMostly Cloudy
4:50 PM48.2 °F42.8 °F82 %30.39 in6.2 miWNW (300°)6.9 mphMostly Cloudy
5:20 PM48.2 °F42.8 °F82 %30.39 in6.2 miNW (310°)6.9 mphMostly Cloudy
5:50 PM48.2 °F42.8 °F82 %30.39 in6.2 miNW (320°)9.2 mphMostly Cloudy
6:20 PM46.4 °F41.0 °F81 %30.39 in6.2 miNNW (330°)3.5 mphScattered Clouds
6:50 PM46.4 °F41.0 °F81 %30.39 in6.2 miWest (270°)2.3 mphScattered Clouds
7:20 PM44.6 °F41.0 °F87 %30.39 in6.2 miSW (230°)3.5 mphMostly Cloudy
7:50 PM44.6 °F42.8 °F93 %30.42 in6.2 miCalmMostly Cloudy
8:20 PM46.4 °F42.8 °F87 %30.39 in6.2 miVariable2.3 mphMostly Cloudy
8:50 PM46.4 °F42.8 °F87 %30.39 in6.2 miWest (280°)3.5 mphMostly Cloudy
9:20 PM44.6 °F41.0 °F87 %30.39 in5.0 miWSW (250°)3.5 mphScattered Clouds
9:50 PM44.6 °F42.8 °F93 %30.39 in6.2 miWSW (250°)6.9 mphMostly Cloudy
10:20 PM42.8 °F39.2 °F87 %30.39 in6.2 miWest (270°)4.6 mphScattered Clouds
10:50 PM42.8 °F41.0 °F93 %30.39 in6.2 miVariable2.3 mphMostly Cloudy
11:20 PM42.8 °F41.0 °F93 %30.36 in6.2 miWest (260°)3.5 mphScattered Clouds
11:50 PM41.0 °F39.2 °F93 %30.36 in6.2 miNW (310°)3.5 mphPartly Cloudy
Hourly data recorded from EGBB, located miles away from Birmingham, England







STORIES FROM OUR PARTNERS